User: anonymous   Login
Location: Observatoire de Paris
(48.8363°N, 2.3365°E)
Time: 22:11:56
(UTC+01:00)
Language:

METEOR M2 - Orbit

View from above orbital plane
View from above orbital plane
View from above satellite
View from above satellite

Ground track
Ground track

The orbit data is extracted from the following two-line orbital elements,

1 40069U 14037A   21262.38688512 -.00000015  00000-0  12470-4 0  9993
2 40069  98.4556 287.2706 0006467  38.8859 321.2786 14.20688203373370
Epoch (UTC): 19 September 2021 09:17:06
Eccentricity: 0.0006467
inclination: 98.4556°
perigee height: 818 km
apogee height: 827 km
right ascension of ascending node: 287.2706°
argument of perigee: 38.8859°
revolutions per day: 14.20688203
mean anomaly at epoch: 321.2786°
orbit number at epoch: 37337

The dashed part of the orbit path shows where the satellite is in the earth's shadow,  

DLR